NIMIQ 2 1 27632U 02062A 21060.58679903 -.00000182 00000-0 00000-0 0 9998 2 27632 4.9262 74.0792 0009416 308.9651 256.6842 1.00271797 24795 BREEZE-M R/B 1 27633U 02062B 21060.60372281 -.00000016 00000-0 00000-0 0 9997 2 27633 14.7068 184.9086 4958796 97.9663 27.8651 1.83741260121974 BREEZE-M DEB [TANK] 1 27646U 02062C 21060.45363271 -.00000073 00000-0 -13817-3 0 9990 2 27646 49.5565 319.8181 5444435 239.9514 339.2700 4.61553745306164